Location: Millers Ferry
(32.0990°N, 87.3680°W)
Time: 11:54:41
(UTC-06:00)

CSL-04 Rocket - Visible Passes

Search period start: 06 December 2016 00:00
Search period end: 16 December 2016 00:00
Orbit: 807 x 859 km, 99.0° (Epoch: 05 December)

Date Brightness Start Highest point End Pass type
(mag) Time Alt. Az. Time Alt. Az. Time Alt. Az.
06 Dec 5.7 04:34:43 10° NE 04:39:29 29° E 04:44:11 10° SSE visible
06 Dec 6.1 17:34:19 10° SSW 17:38:46 26° W 17:43:18 10° NW visible
07 Dec 6.2 04:18:32 10° NE 04:22:29 20° E 04:26:23 10° SE visible
07 Dec 4.1 05:57:42 10° N 06:02:53 43° WNW 06:08:01 10° SW visible
07 Dec 5.4 17:16:47 10° SSW 17:21:48 38° W 17:26:54 10° NNW visible
08 Dec 6.7 04:02:59 10° ENE 04:05:27 13° E 04:07:54 10° ESE visible
08 Dec 3.7 05:40:39 10° N 05:46:06 63° WNW 05:51:29 10° SSW visible
09 Dec 3.7 05:23:43 10° NNE 05:29:16 89° ESE 05:34:43 10° SSW visible
10 Dec 4.2 05:06:55 10° NNE 05:12:23 61° ESE 05:17:45 10° S visible
10 Dec 6.9 18:09:53 10° WSW 18:11:50 12° W 18:13:48 10° WNW visible
11 Dec 5.0 04:50:16 10° NNE 04:55:28 41° E 05:00:34 10° S visible
11 Dec 6.6 17:51:07 10° SW 17:54:48 18° W 17:58:31 10° NW visible
12 Dec 5.7 04:33:49 10° NE 04:38:30 28° E 04:43:06 10° SSE visible
12 Dec 6.1 17:33:14 10° SSW 17:37:47 27° W 17:42:25 10° NW visible
13 Dec 6.3 04:17:42 10° NE 04:21:30 19° E 04:25:15 10° SE visible
13 Dec 4.0 05:56:45 10° N 06:01:57 44° WNW 06:07:03 10° SW visible
13 Dec 5.3 17:15:44 10° SSW 17:20:50 40° W 17:26:00 10° NNW visible
14 Dec 6.7 04:02:17 10° ENE 04:04:28 12° E 04:06:38 10° ESE visible
14 Dec 3.7 05:39:41 10° N 05:45:08 65° WNW 05:50:30 10° SSW visible
15 Dec 3.7 05:22:46 10° NNE 05:28:18 87° ESE 05:33:42 10° SSW visible
